Kosmos-2425

operational
NORAD ID: 29671 Int'l Des: 2006-062 Owner: KVR/IACG Country: RU Constellation: GLONASS
MEOCIRCULAR

Über Kosmos-2425

Beschreibung wird geladen...

Live-Position

3D-Globus wird geladen...

Nächste Überflüge

Höhenverlauf

Altitude vs Time

uPlot chart will show altitude changes over time

Zweizeiliger Elementsatz

1 29671U 06062B 25257.11564934 .00000032 00000-0 00000-0 0 9998
2 29671 64.6996 203.7082 0021560 181.1119 254.5556 2.12963322145670
Epoch: 14. Sept. 2025 • Age: 57 hours

Aktueller Status

Höhe 19142.4 km
Geschwindigkeit 3.95 km/s
Subsatellitenpunkt 62.93°N, 142.13°E
Startdatum 25. Dez. 2006
Alter 18.7 years
Typ other

Technische Details

Klassifizierung Payload
Masse 1450.00 kg
Trockenmasse 1200.00 kg
Gesamtmasse 1450.00 kg
Länge 4.00 m
Durchmesser 1.50 m
Spannweite 7.80 m
Form Cyl + Ant + 2 Pan
Hersteller RESH
Bus-Typ Uragan
Phasenstatus In Orbit
Besitzer/Staat KVR/IACG/RU

Große Konstellationen

Loading constellations...